Find Starlink 11087

NORAD ID: 59421 Int'l Des: 2024-065 Owner: SPXS Country: US Constellation: starlink operational
別名: STARLINK-11087 [DTC] celestrak
LEOCIRCULAR

現在のビュー

3D地球を読み込み中...

About Starlink 11087

Starlink 11087 (NORAD 59421) is a starlink constellation satellite (v2 mini d2c) launched Apr 7, 2024 by SPXS of US. It operates in LEO, CIRCULAR orbit with a mass of 960.00 kg.

次回通過

Passes for default location (London). Set your location on the main map for personalized predictions.

高度履歴

Loading altitude history...

軌道要素

1 59421U 24065A 26264.55184415 .00001047 00000-0 13507-4 0 9993
2 59421 53.1584 208.4892 0001093 102.5907 257.5234 15.69700686142271
Epoch: Sep 21, 2026 • Age: 7 hours

現在のステータス

高度 366.6 km
遠地点 / 近地点 N/A
速度 7.69 km/s
衛星直下点 -23.12°S, 101.22°E
打ち上げ日 Apr 7, 2024
運用期間 2.4 years
タイプ internet

技術仕様

分類 Payload
質量 960.00 kg
乾燥質量 910.00 kg
長さ 0.30 m
スパン 29.00 m
形状 ? Box + pan
製造者 SPXS
バスタイプ Starlink V2MD
フェーズステータス In Orbit
所有者/国 SPXS/US

Most Searched